Wind_Speed
10 14 21 26 26 25 27 24 22 24 23 24 22 21 19 21 20 21 22 19 12 6 29 43 45 44 41 41 41 41 43 37 44 37 30 28 30 30 28 27 27 26 23
6 13 20 24 25 25 25 26 24 24 24 24 23 23 23 22 24 22 21 20 16 11 24 44 45 45 40 43 43 46 37 39 42 27 29 4 12 20 23 24 27 23 22
9 11 21 23 25 24 25 25 26 26 24 24 25 24 24 22 20 19 21 20 20 11 10 28 50 47 42 44 44 48 48 37 25 41 21 6 4 9 13 20 23 24 21
9 12 22 22 25 27 28 27 25 26 26 24 25 22 22 21 19 20 17 23 21 17 12 5 46 49 43 43 44 48 45 48 35 25 25 15 30 6 4 13 20 26 24
14 15 22 27 29 26 27 27 26 26 26 25 25 25 25 25 23 22 21 23 25 17 15 9 33 49 45 44 45 44 42 41 43 28 27 24 34 20 11 5 13 21 23
15 22 27 31 30 28 27 27 27 27 27 28 28 27 28 27 25 22 18 19 22 22 16 14 20 49 46 45 50 47 47 40 36 30 31 34 32 21 22 9 19 17 16
17 19 19 27 28 28 27 28 26 27 27 27 26 27 29 29 28 26 22 19 18 23 18 14 21 43 48 47 47 43 42 43 39 35 34 32 33 28 25 28 18 11 14
19 20 26 29 29 28 29 29 29 28 27 28 29 29 31 28 26 26 25 23 21 22 18 18 30 34 45 46 46 43 40 41 40 39 37 34 35 33 35 32 31 7 5
23 24 29 30 30 30 31 30 31 30 30 29 29 30 29 30 29 27 26 26 24 25 20 21 32 35 40 46 46 42 39 41 44 42 37 35 36 33 34 37 37 27 5
25 24 25 31 33 33 33 32 30 30 30 31 32 32 31 31 30 29 29 27 26 29 24 20 33 41 37 44 46 41 38 40 43 42 39 37 37 34 32 37 36 28 13
28 25 25 33 34 34 32 32 28 32 31 31 32 32 31 32 31 31 30 29 27 29 23 25 33 40 39 42 44 42 43 41 42 40 41 38 38 35 32 36 36 24 18
29 26 29 33 33 29 29 35 32 31 31 31 32 32 31 31 31 33 31 30 29 29 22 30 35 41 39 42 44 44 43 43 43 44 44 40 39 36 35 37 37 24 25
32 27 23 21 29 33 32 32 31 31 31 31 32 32 31 32 33 33 30 31 29 26 28 31 35 40 38 39 41 46 47 46 45 47 45 43 40 38 37 38 39 25 23
29 28 22 24 32 32 33 33 31 31 30 31 32 32 32 32 32 31 31 31 31 31 29 30 39 42 37 38 37 44 44 44 45 46 46 46 45 43 40 39 37 32 25
30 29 29 25 30 33 32 30 29 29 28 30 32 32 30 29 30 31 31 29 30 31 30 28 31 46 41 40 36 38 42 44 43 43 41 45 46 44 41 41 40 36 31
34 34 30 28 24 32 30 27 25 26 26 29 30 29 29 29 30 31 31 31 31 31 30 30 30 42 43 40 40 38 41 42 45 43 40 42 44 43 40 36 36 38 40
34 32 29 27 32 34 36 30 26 24 25 26 28 29 29 29 30 30 29 31 31 31 30 32 34 37 40 42 44 41 39 41 43 42 42 41 41 42 39 34 34 36 36
33 30 26 33 41 43 38 32 25 20 22 24 25 27 28 28 29 30 30 31 30 31 30 31 36 40 36 44 44 43 36 38 41 45 46 44 43 42 41 37 35 34 34
29 33 41 41 44 41 36 28 20 19 21 24 24 25 27 27 28 28 30 28 28 28 30 30 36 40 42 48 48 45 34 33 38 42 45 46 45 44 44 40 37 33 29
43 41 45 43 40 40 38 23 14 18 20 22 23 24 27 24 26 26 30 27 30 28 28 31 37 41 44 52 50 47 32 31 35 36 44 47 45 47 47 45 43 38 34
44 48 43 36 38 38 32 5 13 16 20 21 21 23 26 24 25 24 28 22 27 30 27 32 35 38 44 53 55 54 35 34 34 37 39 43 45 47 49 48 45 41 37
44 45 39 39 40 36 28 17 3 10 20 22 21 20 17 24 24 28 28 24 26 23 26 32 29 32 42 54 54 55 40 42 39 37 41 46 45 44 48 48 43 39 37
41 43 39 37 37 36 34 26 24 10 22 24 22 22 22 23 24 28 27 26 29 23 26 28 28 26 33 45 51 57 43 43 39 37 41 47 46 44 44 43 45 41 39
39 42 43 37 37 38 35 31 28 16 16 22 21 23 24 25 22 25 29 26 30 26 26 26 27 26 31 36 43 48 40 40 36 34 33 36 43 41 37 38 38 41 43
41 42 35 34 38 42 42 40 36 18 11 17 13 12 10 19 22 19 26 28 30 33 30 28 30 33 29 36 47 44 40 40 39 36 34 35 36 33 32 35 38 40 40
38 40 39 40 41 39 41 44 41 33 19 6 6 8 15 17 24 22 21 25 31 32 33 35 37 31 34 44 49 47 49 46 44 38 33 31 34 35 35 34 36 37 41
Wind_Direction
338 329 347 346 338 332 326 320 319 314 316 314 313 312 314 311 307 294 288 294 304 280 289 166 159 157 157 155 151 140 136 133 142 122 110 114 126 125 129 134 134 132 133
293 316 344 340 333 324 323 319 316 310 310 305 302 299 298 294 292 278 266 264 284 269 300 164 164 158 160 157 150 148 140 142 146 143 127 123 99 121 131 134 132 138 139
338 327 340 334 326 323 318 311 307 302 301 299 297 295 292 290 289 297 286 263 262 264 288 170 164 161 162 160 156 155 153 153 158 151 145 133 161 124 130 144 135 140 141
322 337 331 331 325 314 312 305 302 297 295 292 291 287 284 280 275 280 281 262 265 276 301 257 170 163 165 163 161 165 162 157 157 172 160 153 151 140 146 139 146 137 148
337 332 323 325 317 314 308 303 302 294 287 284 283 278 275 272 274 270 268 263 254 253 271 211 191 164 167 166 163 164 165 166 163 169 151 148 153 153 152 139 149 139 147
330 322 318 319 314 310 305 301 295 288 282 279 274 269 268 268 270 269 267 270 253 248 254 219 212 164 168 166 167 170 166 169 169 168 161 154 166 153 156 138 145 141 142
331 319 315 314 308 306 302 298 292 288 285 278 270 267 264 260 260 262 262 259 252 243 239 223 207 174 168 168 166 167 167 171 167 174 169 167 168 164 155 147 147 145 147
324 315 314 310 306 304 301 292 289 283 278 277 272 267 260 256 252 252 250 257 255 246 226 210 202 187 168 166 168 168 169 168 170 175 174 167 169 169 163 164 154 129 135
319 315 311 306 304 302 296 291 284 279 272 267 265 261 259 250 248 247 246 243 244 242 216 204 194 182 172 168 166 168 168 166 175 175 172 171 170 171 171 170 170 164 151
311 311 308 306 302 297 292 285 279 275 272 266 260 256 253 250 246 246 241 237 237 236 206 202 187 177 181 170 169 168 166 164 173 173 173 174 172 172 178 175 175 176 148
314 312 307 304 301 297 291 288 279 275 267 260 254 251 246 244 240 241 238 234 235 232 210 209 188 181 182 178 172 168 164 164 167 174 174 176 177 174 176 179 181 181 188
311 309 308 307 304 299 293 287 281 272 264 257 251 246 241 239 234 235 232 230 231 227 221 208 184 182 183 184 174 166 165 163 167 173 178 175 174 177 180 181 178 188 192
312 310 310 305 308 301 294 285 278 270 261 252 245 240 236 235 228 229 228 223 226 220 225 204 182 178 183 186 179 170 167 169 171 174 178 179 179 178 180 183 182 186 185
310 309 310 312 306 302 295 285 276 267 256 245 240 236 231 233 224 221 223 217 220 213 215 197 178 181 180 183 185 172 168 167 173 178 184 185 185 185 182 184 186 188 180
310 317 317 312 311 306 297 283 271 263 250 239 234 232 229 230 224 216 217 216 217 211 211 201 172 179 180 181 186 177 167 166 170 177 184 190 190 192 187 184 185 187 181
318 317 315 314 313 309 300 293 277 261 244 231 229 226 222 221 223 211 209 208 211 207 204 202 186 171 178 181 184 179 168 170 172 173 183 191 192 194 191 191 194 192 184
314 316 317 314 315 310 307 296 279 257 237 223 221 218 214 215 218 207 203 208 204 203 195 194 180 170 173 178 183 180 173 172 174 174 179 186 191 193 191 196 198 195 198
316 318 318 317 317 313 306 296 278 237 226 215 213 210 206 213 211 200 199 206 198 201 193 190 169 168 173 179 182 179 180 177 177 177 183 184 187 191 189 188 189 192 198
316 317 319 319 314 312 308 297 274 207 213 207 205 203 202 214 200 195 197 203 197 195 193 181 174 169 173 183 184 182 179 178 176 178 185 190 189 190 191 185 181 185 191
321 324 326 324 321 321 320 297 220 194 202 201 198 196 199 211 192 192 194 198 198 191 191 181 177 174 175 184 185 182 177 176 171 175 187 197 194 193 193 190 184 180 183
322 327 331 330 326 328 333 300 179 192 193 193 191 193 202 192 186 193 196 199 191 188 188 178 178 173 177 179 185 182 177 172 171 173 181 191 200 197 194 196 193 193 183
328 334 334 334 332 336 350 359 40 214 191 182 183 185 205 180 188 194 195 211 180 186 174 175 174 175 180 183 186 183 181 180 177 178 185 193 200 202 197 198 199 197 184
327 333 335 334 343 351 0 354 354 45 176 176 179 189 184 185 189 193 194 209 185 183 164 167 168 166 170 182 188 185 185 187 185 187 189 198 200 201 197 193 202 199 187
334 336 339 343 347 355 2 3 3 18 148 155 158 173 180 188 209 191 194 209 173 176 173 171 171 164 170 174 179 181 183 184 184 183 184 190 187 185 181 185 194 196 194
333 335 340 344 348 352 2 10 14 29 87 133 137 169 184 194 220 199 206 168 170 172 170 178 173 169 170 178 178 174 174 175 184 178 173 165 164 165 173 174 184 190 190
339 339 342 347 354 0 7 11 11 19 29 13 307 222 234 217 205 162 142 165 173 180 185 181 175 178 181 182 180 179 180 183 183 170 158 161 167 168 172 175 176 183 186
Height
819 818 816 814 812 810 808 804 802 799 796 793 791 788 785 778 770 766 765 765 768 762 775 772 782 790 802 811 821 827 834 846 852 859 874 881 883 886 891 895 898 900 903
816 815 814 812 810 807 805 802 800 797 794 792 790 788 787 783 782 784 775 771 766 761 766 762 777 785 800 809 815 821 833 844 850 856 865 883 891 892 895 898 899 903 906
816 813 811 810 806 804 802 799 796 793 791 790 787 784 782 778 775 768 761 765 772 764 762 759 768 780 795 803 810 815 824 838 849 852 851 874 881 892 899 899 902 903 908
815 813 810 807 806 801 797 794 792 789 787 786 784 782 780 777 776 770 764 769 762 755 753 755 766 774 790 799 806 813 819 827 837 849 852 855 862 877 898 901 903 904 908
813 811 807 804 801 797 793 789 786 784 781 780 780 777 775 774 775 774 774 764 763 757 762 758 765 771 784 794 801 812 819 825 830 838 846 855 863 873 881 893 901 905 909
812 809 804 799 795 792 788 783 780 778 776 774 774 771 769 768 766 765 763 760 757 759 761 761 763 764 779 788 795 806 813 820 830 837 842 847 853 866 874 887 897 904 910
809 805 799 794 790 785 782 778 774 769 769 766 765 764 762 762 760 758 757 760 754 757 756 758 762 766 773 782 790 802 810 816 826 834 840 846 854 861 872 882 892 899 909
806 801 795 789 783 779 775 771 767 762 760 758 757 756 755 755 755 755 754 747 752 751 753 752 759 767 770 776 787 798 805 813 824 830 838 844 852 857 865 872 881 898 905
800 794 789 782 776 771 767 763 758 754 751 749 747 747 746 746 747 752 751 752 751 752 748 749 754 760 767 773 782 793 801 810 819 827 835 841 850 854 862 869 875 881 895
792 786 779 772 766 760 755 752 748 744 741 739 737 736 738 737 738 741 744 745 746 746 742 747 751 757 767 770 778 789 799 806 816 825 832 840 848 854 859 866 873 880 883
782 776 769 761 754 748 743 739 737 733 729 727 726 726 727 728 730 731 733 735 737 737 731 743 747 751 761 770 775 783 793 802 811 823 830 835 843 850 856 864 870 878 881
775 765 758 749 743 737 732 727 723 720 718 715 714 715 717 719 720 721 725 727 728 731 730 740 741 750 759 768 771 777 788 796 807 817 827 833 842 848 853 860 867 875 878
763 755 748 740 733 726 718 712 709 706 705 703 702 703 706 708 711 713 716 721 723 724 732 735 737 744 754 764 769 770 780 790 801 810 821 829 838 845 850 856 863 869 875
758 747 738 731 722 714 706 699 694 691 690 690 690 690 693 698 702 707 710 715 719 723 726 727 728 738 748 758 768 767 777 786 797 807 816 822 830 838 843 852 858 864 871
750 739 730 717 708 699 690 684 680 676 677 677 677 678 685 690 694 699 703 705 710 714 719 722 723 731 743 753 763 767 773 782 793 804 814 820 824 833 836 844 853 860 866
741 730 719 707 696 687 676 670 666 663 663 664 666 671 676 681 685 691 697 703 706 709 711 717 719 723 735 746 759 767 770 779 789 799 811 819 822 830 835 842 848 852 857
739 724 712 697 686 675 665 656 652 650 651 652 657 662 666 672 677 682 688 693 696 702 705 711 712 719 728 742 755 763 769 777 785 794 804 814 820 828 833 841 847 852 856
732 718 704 688 675 662 652 643 637 637 641 644 648 654 659 665 670 675 682 686 690 695 698 703 706 715 726 736 749 759 770 775 782 789 798 806 814 823 828 836 845 850 854
730 716 702 685 669 653 639 631 627 628 634 637 641 647 654 659 662 668 673 678 684 688 693 695 704 710 720 734 746 759 767 774 780 787 794 801 808 816 823 830 838 846 851
724 708 692 678 663 644 628 614 616 622 627 631 635 642 649 652 658 663 669 675 681 684 690 695 703 708 716 730 740 753 763 772 777 786 790 796 801 810 817 824 829 837 844
721 703 689 677 661 644 628 614 613 618 624 631 635 639 646 649 656 665 668 671 676 682 687 695 702 708 715 722 735 750 757 764 771 778 785 791 798 804 811 818 824 830 840
711 701 687 674 659 644 630 622 617 618 622 626 633 639 644 649 655 663 668 670 672 679 683 692 699 705 713 719 730 741 749 756 764 771 778 783 792 802 807 814 822 830 838
716 704 690 676 662 646 633 623 615 614 620 626 630 637 642 648 653 659 665 665 670 674 680 687 694 702 710 716 724 735 744 752 760 767 772 777 788 797 804 812 816 825 833
718 705 688 672 658 649 640 632 621 616 618 624 630 635 641 646 653 656 660 662 663 671 676 683 691 697 705 713 721 730 741 751 756 765 770 778 787 796 801 809 815 820 826
725 708 701 686 670 651 640 634 625 624 626 629 631 636 639 644 648 651 655 654 661 665 672 680 683 690 696 702 711 722 733 743 752 760 769 776 785 794 802 806 810 816 823
736 715 703 688 675 665 653 642 634 629 628 629 635 635 639 643 647 648 650 655 663 668 675 680 682 689 693 699 709 719 728 736 746 754 762 770 777 783 793 800 805 812 818